STARLINK-11673 [DTC]

Last updated on Thu Jul 03 2025 00:02:06 GMT+0000 (Coordinated Universal Time)

1 64318U 25124B 25183.47761032 .00332028 00000+0 18283-2 0 9996 2 64318 43.0006 98.2188 0001686 279.7940 80.2739 15.77967650 3478
UTC large
Height (km)
Speed (km/s)
/
Latitude / Longitude
Inclination (degrees)
Orbital Period (minutes)
Azimuth
Elevation
Range (km)
Doppler Factor

Next 0 passes for location: London (51.5072 / 0.1276)

Sorry there are no passes over London.